Dewpoint
22 25 24 22 22 18 20 20 18 19 22 38 39 39 40 52 53 54 55 55 55 55 56 57 62 62 62 64 67 67 67 68 69 70 70 69 67 68 70 70 69 69 71 71
17 17 22 23 21 18 16 16 18 19 20 37 40 39 38 47 49 52 52 53 54 55 55 56 59 61 63 66 67 67 67 67 67 69 69 69 69 69 69 70 70 69 70 71
15 18 21 22 22 18 15 13 15 16 19 44 41 39 41 41 41 46 51 52 53 53 54 55 56 60 61 65 66 66 68 68 68 69 71 70 70 70 70 70 71 72 71 71
16 20 20 19 21 20 16 15 15 16 18 21 39 31 39 41 40 41 46 49 51 52 53 54 55 57 60 64 66 66 69 69 69 70 70 69 68 68 68 68 70 71 72 72
19 20 20 20 21 21 17 18 18 18 18 19 23 33 35 41 41 40 43 47 49 51 52 53 55 56 59 62 65 65 68 71 70 70 69 69 68 67 68 68 69 70 72 71
20 20 20 18 20 21 17 13 12 18 19 17 20 28 34 37 39 39 42 44 47 49 51 52 55 55 57 61 64 65 66 70 71 70 70 69 68 67 67 67 68 71 71 71
22 20 16 19 18 17 14 9 6 7 12 15 19 31 32 37 41 39 41 44 44 48 49 50 53 54 56 59 63 66 67 67 70 70 69 69 69 68 67 67 69 70 70 69
19 19 20 17 15 15 13 8 5 5 10 14 18 23 28 35 41 42 42 44 44 44 48 50 52 55 55 58 63 66 67 66 69 69 70 70 69 69 69 69 69 70 69 67
14 16 19 20 19 14 13 7 6 5 13 10 15 20 25 32 35 42 43 44 44 43 44 47 51 54 56 59 64 66 67 67 69 69 69 70 71 70 69 69 69 69 68 67
13 12 16 15 20 20 14 12 5 4 1 3 7 15 17 21 30 36 40 43 44 44 44 45 47 53 56 58 64 66 68 67 69 70 70 69 70 71 70 70 70 68 67 67
11 12 12 17 15 17 17 13 8 5 3 1 5 6 14 17 24 30 41 43 44 46 46 46 46 52 55 57 63 66 68 67 69 70 70 70 71 70 71 72 71 69 67 67
14 10 9 10 14 18 18 15 10 6 5 5 3 4 16 17 22 28 37 42 43 44 44 48 47 49 54 58 62 66 69 68 69 71 71 71 71 71 70 70 72 70 68 67
32 13 9 10 13 14 15 16 13 9 8 6 7 6 11 12 16 37 38 39 38 40 43 47 49 50 53 57 60 64 68 69 70 70 71 72 72 72 71 70 70 71 69 68
29 26 17 13 13 12 12 13 13 9 8 7 7 8 11 12 15 24 22 28 38 39 41 45 50 50 54 57 59 63 66 70 70 71 70 70 72 73 72 71 70 71 71 69
32 25 21 19 17 13 13 15 13 12 10 8 9 8 8 9 9 11 14 35 39 38 43 47 50 51 55 57 58 62 66 69 70 71 71 71 71 72 73 72 71 70 72 70
32 27 26 23 21 14 12 14 15 14 12 10 10 9 10 10 14 18 20 23 36 35 35 42 50 52 54 57 59 60 64 69 70 71 71 72 72 71 72 72 72 72 71 72
31 29 25 21 22 14 13 15 17 17 17 13 10 12 16 16 19 22 23 38 37 35 43 47 49 51 54 58 59 59 63 68 70 70 71 71 72 72 72 72 72 73 72 71
30 29 26 23 23 13 14 16 14 15 17 18 14 14 16 15 16 22 33 38 31 34 36 50 50 51 55 56 59 60 61 64 68 69 70 71 71 71 72 72 72 72 73 71
31 30 26 22 24 21 23 22 17 16 16 23 22 19 20 26 27 37 40 32 30 31 35 41 52 52 52 54 57 59 61 63 64 67 69 70 71 71 71 71 72 72 72 73
26 26 26 25 21 19 20 23 26 30 24 44 37 38 36 33 25 37 46 43 41 39 39 34 52 57 56 54 55 58 60 62 63 64 66 69 70 70 70 71 71 72 72 72
35 34 25 26 27 23 27 29 34 22 30 46 46 44 42 40 42 45 48 45 46 41 44 44 33 48 54 59 57 57 59 60 62 63 64 66 69 69 70 70 71 71 72 72
34 35 33 31 30 23 43 44 24 38 49 47 48 46 45 54 60 62 59 55 51 47 44 45 42 34 45 57 59 57 58 59 61 62 63 64 67 68 69 70 71 71 72 72
36 38 36 38 40 43 52 54 57 57 55 57 56 58 58 59 61 62 64 65 66 67 67 68 51 39 40 57 61 60 59 59 60 62 62 66 67 67 70 71 72 72 71 70
41 47 42 39 47 49 49 50 56 56 56 57 58 58 59 60 61 62 64 65 66 68 68 70 69 66 58 63 61 61 62 62 64 65 66 70 70 72 72 72 72 71 70 68
43 43 44 43 47 50 48 49 54 54 53 54 53 54 56 57 58 59 60 62 64 66 67 68 69 70 70 71 69 70 71 67 70 72 73 73 72 71 66 61 66 68 66 68
45 46 40 44 49 47 48 49 51 50 50 50 51 52 53 54 54 55 55 57 61 64 65 62 62 65 66 66 69 72 72 72 71 70 68 66 64 62 60 60 58 53 60 64
Wind_Speed
14 18 25 21 17 12 13 15 19 17 9 18 23 26 32 40 34 34 32 32 31 33 30 21 31 31 24 27 28 28 26 24 21 17 17 14 15 11 9 14 14 17 16 16
18 24 15 14 14 19 21 24 30 17 15 8 18 25 28 38 40 39 35 33 34 31 29 26 29 34 30 31 30 30 28 25 23 19 16 9 15 10 8 11 14 16 16 17
24 12 22 16 21 19 25 27 27 20 16 2 12 6 13 18 13 25 32 36 34 36 34 32 30 31 33 31 32 31 30 29 26 20 15 8 7 4 7 8 10 14 17 18
18 23 18 28 22 22 25 25 24 18 11 17 13 12 20 26 19 27 33 32 34 35 34 33 35 32 34 34 32 33 29 31 27 24 22 23 19 18 15 13 11 14 13 17
15 28 30 24 25 26 23 18 21 21 20 15 21 11 13 19 28 24 28 35 34 35 35 34 37 38 35 33 32 32 31 28 28 28 26 25 21 19 15 14 12 16 16 17
26 14 24 25 22 26 23 17 21 18 20 27 26 24 19 21 26 28 27 33 37 35 36 36 38 36 34 31 32 30 31 29 28 29 28 29 25 23 19 16 13 15 15 18
16 28 18 20 20 23 23 21 20 19 23 24 20 20 21 30 28 37 39 34 37 37 37 36 34 34 33 32 32 30 31 30 28 30 28 28 26 24 22 20 18 17 17 15
25 23 25 19 27 30 22 25 22 19 16 14 17 16 27 28 29 39 41 35 34 35 37 39 39 39 37 34 34 33 33 32 29 29 29 26 24 21 19 19 17 18 19 21
12 25 8 29 20 27 22 21 26 24 8 14 10 9 18 23 25 32 37 27 35 39 39 42 39 39 38 34 37 37 35 34 32 32 28 25 23 23 21 19 18 18 17 16
22 10 19 31 18 32 23 15 15 9 32 32 15 14 25 18 24 24 34 39 39 42 45 41 38 39 37 37 36 36 37 39 36 33 30 27 27 25 20 19 22 20 19 18
31 24 19 14 23 29 21 27 12 16 20 25 22 33 15 26 17 16 31 41 42 42 43 37 37 37 39 36 33 34 33 35 33 32 30 28 25 24 23 23 21 22 21 21
22 24 29 39 22 21 32 25 23 23 20 19 33 48 10 19 17 23 26 33 38 39 34 34 34 33 32 35 33 35 33 34 34 32 31 29 26 25 26 27 22 20 24 22
12 13 25 18 19 20 16 25 32 15 12 31 25 18 12 17 16 10 7 16 9 15 18 24 28 31 33 35 35 34 33 35 33 31 30 28 28 27 30 29 26 21 23 21
16 14 25 38 29 12 14 27 27 32 31 27 41 21 12 9 9 12 22 25 29 27 19 26 29 34 34 35 36 34 34 34 33 33 32 31 30 32 31 29 26 25 23 21
18 11 12 24 24 33 25 21 32 38 37 39 35 23 22 22 23 24 23 19 22 20 19 27 26 27 31 33 34 33 33 33 35 35 34 35 33 31 29 27 26 24 24 22
12 8 16 19 22 35 36 31 33 33 35 31 21 19 20 24 24 23 24 20 19 29 26 27 36 40 37 35 36 35 34 34 34 34 36 34 32 30 30 28 26 24 24 24
7 6 16 11 11 30 34 46 25 23 23 26 29 19 22 20 20 18 16 15 21 19 22 30 31 33 35 36 36 36 36 32 35 36 32 32 31 32 31 28 26 26 27 22
15 16 7 14 20 34 22 27 30 20 17 18 24 25 30 32 30 23 13 17 18 16 9 20 26 32 34 36 33 35 31 33 35 35 32 31 31 32 30 28 29 26 25 26
28 20 7 7 12 6 11 15 25 17 25 19 18 23 22 16 9 3 2 4 10 16 15 15 26 26 30 26 28 29 30 32 32 32 33 33 32 31 30 31 29 26 24 24
32 31 19 14 6 12 11 7 19 11 8 3 16 18 18 18 17 8 4 4 4 1 6 10 24 26 24 24 29 30 32 34 37 37 37 36 33 31 32 30 28 25 25 26
3 6 20 21 14 15 4 6 9 14 8 8 12 15 16 10 9 5 3 3 1 2 8 7 19 28 30 29 25 30 32 35 39 38 33 28 31 32 30 26 24 25 25 20
7 8 7 4 14 10 38 25 13 17 10 18 13 9 19 17 16 17 13 7 3 4 8 10 9 20 21 27 32 33 32 36 33 27 27 26 28 28 24 27 24 23 22 22
14 9 13 8 8 20 30 17 12 15 24 9 15 13 20 18 15 13 13 14 12 10 9 12 13 17 20 22 27 33 37 31 27 27 27 27 26 26 26 28 25 24 23 23
14 6 5 1 5 21 30 28 20 18 21 17 17 18 15 23 15 17 16 15 15 14 13 11 11 11 21 20 26 30 30 31 31 30 28 26 28 27 26 25 27 26 25 22
7 11 6 3 12 15 20 26 14 16 20 23 20 21 16 17 17 14 17 15 14 14 14 13 11 14 20 17 21 21 21 26 29 27 23 22 21 21 21 17 12 16 10 19
3 5 12 3 6 1 9 20 15 20 21 17 21 23 19 18 18 15 21 16 17 18 13 12 15 16 17 23 31 14 29 31 29 26 30 24 23 21 19 19 23 19 19 14
Wind_Direction
212 220 226 222 222 226 244 257 258 266 329 187 177 169 168 173 180 184 184 186 190 192 197 179 184 185 184 186 183 184 183 184 186 182 185 188 202 212 194 197 204 185 193 194
230 232 220 219 226 225 238 248 260 292 275 237 197 177 172 174 186 185 184 189 193 196 194 197 175 185 182 183 186 182 186 186 190 191 188 189 199 208 212 203 217 209 202 198
216 225 216 216 227 228 228 235 249 247 296 153 165 159 181 192 184 191 191 192 193 193 194 194 189 185 182 184 185 184 186 189 189 184 175 177 177 182 197 209 213 214 200 193
232 225 211 214 226 225 235 228 245 255 262 273 191 226 207 209 218 193 194 196 197 198 198 192 194 189 189 186 184 184 183 186 186 179 182 190 195 203 213 207 209 211 194 189
212 201 216 215 215 221 242 241 250 242 247 241 247 246 225 209 228 220 196 198 199 199 198 196 196 197 193 187 186 186 180 179 180 184 185 189 193 201 210 210 215 209 198 193
223 225 207 219 218 220 232 243 256 245 237 248 242 236 226 219 218 220 203 203 199 200 199 201 201 198 196 190 189 188 184 182 177 181 185 190 195 202 210 216 219 206 193 195
230 232 224 216 212 220 214 216 234 246 234 242 236 223 229 214 210 207 208 203 199 197 198 202 199 200 198 192 190 187 187 188 182 182 186 190 195 199 207 210 208 197 195 193
221 239 221 221 212 219 222 210 214 220 233 257 238 229 234 227 211 204 212 206 193 197 201 202 199 199 198 193 187 186 188 189 187 187 189 191 194 200 204 207 198 200 196 197
202 231 242 222 220 207 230 216 215 230 232 269 249 239 248 228 228 214 215 203 195 198 200 204 201 201 198 192 189 187 187 191 190 192 192 192 193 199 202 203 199 196 191 190
225 257 221 237 229 239 218 203 217 208 229 239 247 240 235 221 232 225 207 204 196 197 204 206 197 198 198 195 190 188 187 189 190 192 193 193 198 200 197 197 200 197 197 193
212 214 235 222 225 223 218 218 216 218 220 233 251 252 218 241 253 244 215 201 197 196 204 203 200 197 195 193 187 189 189 191 191 192 193 193 197 200 201 208 203 198 196 198
273 220 232 233 226 219 227 223 211 219 217 229 231 248 156 219 251 260 220 207 203 200 195 200 197 195 191 191 187 188 188 191 193 190 191 194 193 193 201 210 208 196 200 196
323 229 232 251 254 240 227 228 219 200 197 227 224 252 206 228 263 172 202 199 201 215 195 200 192 190 190 191 190 188 188 192 193 189 190 193 194 194 204 210 208 201 205 196
346 261 246 234 226 211 214 222 217 214 220 226 233 230 238 263 247 272 258 245 211 188 204 191 188 192 190 192 191 191 192 189 189 191 191 194 195 199 203 208 206 205 202 201
358 277 280 278 266 213 213 211 217 219 219 216 233 226 227 246 260 262 275 255 199 176 180 180 194 201 194 190 193 192 193 189 187 191 192 197 199 200 203 206 206 205 205 203
331 288 328 296 256 230 219 222 229 220 220 227 220 226 201 225 240 244 244 254 230 186 193 198 192 193 192 190 190 192 191 191 189 194 198 196 198 198 202 203 202 200 201 203
281 299 345 283 278 217 230 219 210 219 217 218 219 210 194 203 215 224 249 213 222 227 201 199 196 188 192 189 190 191 192 186 190 198 199 198 196 198 200 200 198 199 201 194
244 270 276 285 299 210 214 218 221 216 227 220 225 216 212 219 226 220 220 221 193 158 177 196 192 191 194 191 189 193 189 188 192 197 197 199 198 199 198 196 200 198 196 199
218 227 253 258 290 253 179 180 197 201 236 228 223 224 224 207 126 83 340 220 220 221 196 171 194 200 191 187 192 188 187 193 195 197 199 199 200 197 195 199 197 194 194 197
221 209 204 260 300 248 205 170 131 138 201 266 173 158 152 147 164 162 215 147 96 234 307 229 183 186 194 206 187 186 191 191 196 200 202 197 195 195 195 197 195 191 193 198
84 156 204 251 262 271 316 151 136 161 182 115 119 130 128 118 137 153 242 294 269 297 304 238 224 186 190 193 185 190 193 197 203 205 204 195 192 193 195 190 188 191 191 183
143 150 156 258 269 242 341 318 192 140 133 125 113 118 106 107 97 88 92 95 103 245 261 279 241 227 224 187 185 194 198 204 207 201 195 195 191 190 185 184 185 182 174 171
175 199 173 171 253 318 314 325 37 112 125 108 110 107 116 104 92 79 73 74 69 56 17 339 255 250 240 203 196 192 205 199 192 186 188 184 182 184 179 175 171 168 168 169
173 166 159 165 40 348 358 354 6 53 85 86 95 100 103 110 101 90 76 59 52 48 44 23 4 284 233 220 205 208 199 183 174 174 178 178 174 169 170 171 170 168 167 160
176 151 120 283 340 319 351 356 1 35 62 65 60 72 78 95 86 89 83 66 57 47 40 37 33 21 5 335 180 169 167 166 156 146 151 157 150 145 132 114 138 157 149 171
356 157 168 138 285 325 7 8 30 46 51 52 70 65 52 66 75 67 64 57 54 48 29 18 17 11 17 14 350 162 146 143 139 139 138 138 129 123 113 103 88 65 109 111